Time,TemperatureF,DewpointF,PressureIn,WindDirection,WindDirectionDegrees,WindSpeedMPH,WindSpeedGustMPH,Humidity,HourlyPrecipIn,Conditions,Clouds,dailyrainin,SolarRadiationWatts/m^2,SoftwareType,DateUTC
2013-05-09 00:03:00,62.6,24.3,30.13,ESE,106,6.0,0.0,23,0.00,,,0.00,0,WeatherHawk,2013-05-09 07:03:00,
2013-05-09 00:09:00,63.7,24.1,30.13,East,96,7.0,0.0,22,0.00,,,0.00,1,WeatherHawk,2013-05-09 07:09:00,
2013-05-09 00:14:00,62.8,23.4,30.13,East,87,6.0,0.0,22,0.00,,,0.00,0,WeatherHawk,2013-05-09 07:14:00,
2013-05-09 00:19:00,62.7,23.3,30.14,ENE,77,6.0,0.0,22,0.00,,,0.00,0,WeatherHawk,2013-05-09 07:19:00,
2013-05-09 00:25:00,61.4,23.3,30.13,ESE,103,5.0,0.0,23,0.00,,,0.00,1,WeatherHawk,2013-05-09 07:25:00,
2013-05-09 00:30:00,61.0,24.9,30.13,ESE,110,6.0,0.0,25,0.00,,,0.00,0,WeatherHawk,2013-05-09 07:30:00,
2013-05-09 00:35:00,60.8,25.7,30.14,ESE,117,7.0,0.0,26,0.00,,,0.00,0,WeatherHawk,2013-05-09 07:35:00,
2013-05-09 00:40:00,60.4,26.2,30.13,ESE,114,4.0,0.0,27,0.00,,,0.00,0,WeatherHawk,2013-05-09 07:40:00,
2013-05-09 00:45:00,60.7,28.2,30.14,SE,124,4.0,0.0,29,0.00,,,0.00,0,WeatherHawk,2013-05-09 07:45:00,
2013-05-09 00:50:00,60.6,29.8,30.14,SE,125,5.0,0.0,31,0.00,,,0.00,0,WeatherHawk,2013-05-09 07:50:00,
2013-05-09 00:55:00,59.8,30.6,30.14,SE,144,4.0,0.0,33,0.00,,,0.00,0,WeatherHawk,2013-05-09 07:55:00,
2013-05-09 01:01:00,59.6,31.2,30.15,SE,134,2.0,0.0,34,0.00,,,0.00,0,WeatherHawk,2013-05-09 08:01:00,
2013-05-09 01:07:00,59.2,31.6,30.15,ESE,123,2.0,0.0,35,0.00,,,0.00,0,WeatherHawk,2013-05-09 08:07:00,
2013-05-09 01:13:00,57.8,32.3,30.15,SE,125,0.0,0.0,38,0.00,,,0.00,0,WeatherHawk,2013-05-09 08:13:00,
2013-05-09 01:18:00,59.3,36.2,30.15,SE,125,0.0,0.0,42,0.00,,,0.00,0,WeatherHawk,2013-05-09 08:18:00,
2013-05-09 01:23:00,59.6,37.1,30.16,NE,53,0.0,0.0,43,0.00,,,0.00,0,WeatherHawk,2013-05-09 08:23:00,
2013-05-09 01:28:00,58.9,36.4,30.16,NE,53,0.0,0.0,43,0.00,,,0.00,0,WeatherHawk,2013-05-09 08:28:00,
2013-05-09 01:33:00,58.6,37.3,30.15,East,92,0.0,0.0,45,0.00,,,0.00,0,WeatherHawk,2013-05-09 08:33:00,
2013-05-09 01:38:00,58.7,37.4,30.15,ESE,122,0.0,0.0,45,0.00,,,0.00,0,WeatherHawk,2013-05-09 08:38:00,
2013-05-09 01:43:00,57.6,37.0,30.16,SE,135,2.0,0.0,46,0.00,,,0.00,0,WeatherHawk,2013-05-09 08:43:00,
2013-05-09 01:48:00,56.8,36.3,30.16,ESE,120,0.0,0.0,46,0.00,,,0.00,0,WeatherHawk,2013-05-09 08:48:00,
2013-05-09 01:53:00,57.9,36.1,30.16,SE,126,3.0,0.0,44,0.00,,,0.00,0,WeatherHawk,2013-05-09 08:53:00,
2013-05-09 01:58:00,57.6,35.9,30.15,SE,131,2.0,0.0,44,0.00,,,0.00,0,WeatherHawk,2013-05-09 08:58:00,
2013-05-09 02:03:00,59.0,38.3,30.16,SE,132,2.0,0.0,46,0.00,,,0.00,0,WeatherHawk,2013-05-09 09:03:00,
2013-05-09 02:08:00,57.7,37.1,30.15,SE,125,2.0,0.0,46,0.00,,,0.00,0,WeatherHawk,2013-05-09 09:08:00,
2013-05-09 02:13:00,56.9,36.9,30.15,SE,134,2.0,0.0,47,0.00,,,0.00,0,WeatherHawk,2013-05-09 09:13:00,
2013-05-09 02:18:00,56.8,37.8,30.16,SE,129,0.0,0.0,49,0.00,,,0.00,0,WeatherHawk,2013-05-09 09:18:00,
2013-05-09 02:23:00,56.6,39.2,30.16,SE,129,0.0,0.0,52,0.00,,,0.00,0,WeatherHawk,2013-05-09 09:23:00,
2013-05-09 02:29:00,57.0,39.1,30.16,ESE,113,0.0,0.0,51,0.00,,,0.00,1,WeatherHawk,2013-05-09 09:29:00,
2013-05-09 02:34:00,56.3,38.9,30.16,ESE,113,0.0,0.0,52,0.00,,,0.00,0,WeatherHawk,2013-05-09 09:34:00,
2013-05-09 02:40:00,56.3,39.4,30.16,ESE,113,0.0,0.0,53,0.00,,,0.00,0,WeatherHawk,2013-05-09 09:40:00,
2013-05-09 02:45:00,55.4,39.1,30.16,North,0,0.0,0.0,54,0.00,,,0.00,0,WeatherHawk,2013-05-09 09:45:00,
2013-05-09 02:50:00,54.6,39.2,30.16,North,0,0.0,-999.0,56,0.00,,,0.00,0,WeatherHawk,2013-05-09 09:50:00,
2013-05-09 02:55:00,54.9,39.9,30.16,SE,139,0.0,0.0,57,0.00,,,0.00,0,WeatherHawk,2013-05-09 09:55:00,
2013-05-09 03:00:00,55.1,40.6,30.16,SE,139,0.0,0.0,58,0.00,,,0.00,0,WeatherHawk,2013-05-09 10:00:00,
2013-05-09 03:05:00,55.0,40.0,30.16,SE,139,0.0,0.0,57,0.00,,,0.00,0,WeatherHawk,2013-05-09 10:05:00,
2013-05-09 03:10:00,55.8,41.7,30.16,SE,139,0.0,0.0,59,0.00,,,0.00,0,WeatherHawk,2013-05-09 10:10:00,
2013-05-09 03:15:00,54.9,40.0,30.16,SE,134,2.0,0.0,57,0.00,,,0.00,0,WeatherHawk,2013-05-09 10:15:00,
2013-05-09 03:20:00,55.2,39.4,30.16,SSE,151,4.0,0.0,55,0.00,,,0.00,1,WeatherHawk,2013-05-09 10:20:00,
2013-05-09 03:25:00,55.4,38.5,30.16,SE,130,5.0,0.0,53,0.00,,,0.00,0,WeatherHawk,2013-05-09 10:25:00,
2013-05-09 03:30:00,55.9,38.5,30.16,SSE,154,4.0,0.0,52,0.00,,,0.00,0,WeatherHawk,2013-05-09 10:30:00,
2013-05-09 03:35:00,56.1,37.7,30.16,SSE,151,7.0,0.0,50,0.00,,,0.00,0,WeatherHawk,2013-05-09 10:35:00,
2013-05-09 03:40:00,56.0,37.7,30.16,SSE,158,7.0,0.0,50,0.00,,,0.00,1,WeatherHawk,2013-05-09 10:40:00,
2013-05-09 03:45:00,55.1,36.8,30.16,SSE,149,5.0,0.0,50,0.00,,,0.00,0,WeatherHawk,2013-05-09 10:45:00,
2013-05-09 03:50:00,53.9,38.1,30.16,NW,323,0.0,0.0,55,0.00,,,0.00,0,WeatherHawk,2013-05-09 10:50:00,
2013-05-09 03:55:00,53.5,39.0,30.17,NW,323,0.0,0.0,58,0.00,,,0.00,0,WeatherHawk,2013-05-09 10:55:00,
2013-05-09 04:01:00,53.3,40.6,30.16,NW,323,0.0,0.0,62,0.00,,,0.00,0,WeatherHawk,2013-05-09 11:01:00,
2013-05-09 04:06:00,52.2,39.2,30.17,SSE,152,0.0,0.0,61,0.00,,,0.00,0,WeatherHawk,2013-05-09 11:06:00,
2013-05-09 04:11:00,53.1,40.8,30.17,South,190,0.0,0.0,63,0.00,,,0.00,0,WeatherHawk,2013-05-09 11:11:00,
2013-05-09 04:16:00,53.1,40.4,30.17,SSE,161,2.0,0.0,62,0.00,,,0.00,0,WeatherHawk,2013-05-09 11:16:00,
2013-05-09 04:21:00,55.1,41.5,30.17,SSE,159,4.0,0.0,60,0.00,,,0.00,0,WeatherHawk,2013-05-09 11:21:00,
2013-05-09 04:26:00,55.2,39.7,30.16,South,181,4.0,0.0,56,0.00,,,0.00,1,WeatherHawk,2013-05-09 11:26:00,
2013-05-09 04:31:00,54.9,39.0,30.17,SSE,154,4.0,0.0,55,0.00,,,0.00,0,WeatherHawk,2013-05-09 11:31:00,
2013-05-09 04:36:00,53.8,38.0,30.17,SSE,167,0.0,0.0,55,0.00,,,0.00,1,WeatherHawk,2013-05-09 11:36:00,
2013-05-09 04:41:00,53.0,37.8,30.17,South,185,0.0,0.0,56,0.00,,,0.00,0,WeatherHawk,2013-05-09 11:41:00,
2013-05-09 04:46:00,53.8,39.4,30.17,South,173,2.0,0.0,58,0.00,,,0.00,0,WeatherHawk,2013-05-09 11:46:00,
2013-05-09 04:51:00,53.6,37.8,30.17,South,180,1.0,0.0,55,0.00,,,0.00,0,WeatherHawk,2013-05-09 11:51:00,
2013-05-09 04:56:00,53.8,37.1,30.17,SSW,194,1.0,0.0,53,0.00,,,0.00,0,WeatherHawk,2013-05-09 11:56:00,
2013-05-09 05:01:00,53.7,37.0,30.17,SSW,197,0.0,0.0,53,0.00,,,0.00,0,WeatherHawk,2013-05-09 12:01:00,
2013-05-09 05:06:00,52.9,39.8,30.17,SSW,197,0.0,0.0,61,0.00,,,0.00,1,WeatherHawk,2013-05-09 12:06:00,
2013-05-09 05:12:00,52.0,39.8,30.17,SSW,197,0.0,0.0,63,0.00,,,0.00,0,WeatherHawk,2013-05-09 12:12:00,
2013-05-09 05:17:00,52.8,41.0,30.17,NW,324,0.0,0.0,64,0.00,,,0.00,0,WeatherHawk,2013-05-09 12:17:00,
2013-05-09 05:22:00,51.7,40.3,30.17,SW,225,0.0,0.0,65,0.00,,,0.00,1,WeatherHawk,2013-05-09 12:22:00,
2013-05-09 05:27:00,51.5,40.1,30.17,SSW,207,0.0,0.0,65,0.00,,,0.00,0,WeatherHawk,2013-05-09 12:27:00,
2013-05-09 05:32:00,50.9,39.5,30.17,SSE,158,0.0,0.0,65,0.00,,,0.00,0,WeatherHawk,2013-05-09 12:32:00,
2013-05-09 05:38:00,52.5,41.5,30.17,SSE,158,0.0,0.0,66,0.00,,,0.00,3,WeatherHawk,2013-05-09 12:38:00,
2013-05-09 05:43:00,52.0,39.8,30.17,SSW,203,0.0,0.0,63,0.00,,,0.00,3,WeatherHawk,2013-05-09 12:43:00,
2013-05-09 05:48:00,51.6,39.0,30.17,East,98,0.0,0.0,62,0.00,,,0.00,5,WeatherHawk,2013-05-09 12:48:00,
2013-05-09 05:53:00,51.0,39.3,30.17,WNW,288,0.0,0.0,64,0.00,,,0.00,8,WeatherHawk,2013-05-09 12:53:00,
2013-05-09 05:58:00,51.7,40.3,30.17,ESE,122,0.0,0.0,65,0.00,,,0.00,10,WeatherHawk,2013-05-09 12:58:00,
2013-05-09 06:03:00,52.1,40.7,30.17,West,276,0.0,0.0,65,0.00,,,0.00,12,WeatherHawk,2013-05-09 13:03:00,
2013-05-09 06:08:00,51.8,40.8,30.17,South,189,0.0,0.0,66,0.00,,,0.00,15,WeatherHawk,2013-05-09 13:08:00,
2013-05-09 06:13:00,52.0,41.4,30.18,NNE,24,0.0,0.0,67,0.00,,,0.00,17,WeatherHawk,2013-05-09 13:13:00,
2013-05-09 06:18:00,51.6,41.1,30.17,NE,51,0.0,0.0,67,0.00,,,0.00,19,WeatherHawk,2013-05-09 13:18:00,
2013-05-09 06:23:00,51.6,40.6,30.18,SW,223,0.0,0.0,66,0.00,,,0.00,22,WeatherHawk,2013-05-09 13:23:00,
2013-05-09 06:28:00,50.4,40.2,30.18,WNW,299,0.0,0.0,68,0.00,,,0.00,24,WeatherHawk,2013-05-09 13:28:00,
2013-05-09 06:34:00,51.1,40.9,30.17,ENE,64,0.0,0.0,68,0.00,,,0.00,25,WeatherHawk,2013-05-09 13:34:00,
2013-05-09 06:39:00,50.9,39.9,30.18,North,351,0.0,0.0,66,0.00,,,0.00,28,WeatherHawk,2013-05-09 13:39:00,
2013-05-09 06:44:00,51.3,39.6,30.18,NNE,27,0.0,0.0,64,0.00,,,0.00,29,WeatherHawk,2013-05-09 13:44:00,
2013-05-09 06:50:00,51.2,40.2,30.18,NNE,12,0.0,0.0,66,0.00,,,0.00,29,WeatherHawk,2013-05-09 13:50:00,
2013-05-09 06:55:00,50.4,39.9,30.18,South,186,0.0,-999.0,67,0.00,,,0.00,34,WeatherHawk,2013-05-09 13:55:00,
2013-05-09 07:00:00,51.8,41.2,30.18,NNE,32,0.0,0.0,67,0.00,,,0.00,78,WeatherHawk,2013-05-09 14:00:00,
2013-05-09 07:05:00,53.7,40.2,30.18,South,181,0.0,-999.0,60,0.00,,,0.00,139,WeatherHawk,2013-05-09 14:05:00,
2013-05-09 07:10:00,55.8,39.9,30.18,SSW,204,0.0,0.0,55,0.00,,,0.00,150,WeatherHawk,2013-05-09 14:10:00,
2013-05-09 07:15:00,56.2,38.8,30.18,SSW,204,0.0,0.0,52,0.00,,,0.00,163,WeatherHawk,2013-05-09 14:15:00,
2013-05-09 07:20:00,54.4,34.6,30.18,NE,40,0.0,0.0,47,0.00,,,0.00,173,WeatherHawk,2013-05-09 14:20:00,
2013-05-09 07:25:00,55.8,36.4,30.18,NE,44,0.0,0.0,48,0.00,,,0.00,186,WeatherHawk,2013-05-09 14:25:00,
2013-05-09 07:30:00,54.6,33.7,30.18,WNW,282,0.0,0.0,45,0.00,,,0.00,200,WeatherHawk,2013-05-09 14:30:00,
2013-05-09 07:35:00,63.0,39.5,30.18,SW,224,0.0,-999.0,42,0.00,,,0.00,212,WeatherHawk,2013-05-09 14:35:00,
2013-05-09 07:40:00,57.0,32.3,30.18,SW,224,0.0,0.0,39,0.00,,,0.00,225,WeatherHawk,2013-05-09 14:40:00,
2013-05-09 07:45:00,60.6,36.8,30.18,ENE,61,0.0,-999.0,41,0.00,,,0.00,237,WeatherHawk,2013-05-09 14:45:00,
2013-05-09 07:50:00,58.3,32.1,30.18,ENE,61,0.0,0.0,37,0.00,,,0.00,250,WeatherHawk,2013-05-09 14:50:00,
2013-05-09 07:55:00,57.1,33.6,30.18,NNW,344,0.0,0.0,41,0.00,,,0.00,262,WeatherHawk,2013-05-09 14:55:00,
2013-05-09 08:00:00,59.0,34.7,30.18,NNW,344,0.0,0.0,40,0.00,,,0.00,276,WeatherHawk,2013-05-09 15:00:00,
2013-05-09 08:05:00,58.6,34.4,30.18,NNW,344,0.0,0.0,40,0.00,,,0.00,289,WeatherHawk,2013-05-09 15:05:00,
2013-05-09 08:10:00,58.1,32.6,30.18,NNW,344,0.0,0.0,38,0.00,,,0.00,304,WeatherHawk,2013-05-09 15:10:00,
2013-05-09 08:15:00,58.1,31.3,30.18,NNW,342,0.0,0.0,36,0.00,,,0.00,315,WeatherHawk,2013-05-09 15:15:00,
2013-05-09 08:20:00,59.5,32.6,30.18,West,275,0.0,0.0,36,0.00,,,0.00,327,WeatherHawk,2013-05-09 15:20:00,
2013-05-09 08:25:00,61.1,33.3,30.18,NNW,344,0.0,-999.0,35,0.00,,,0.00,341,WeatherHawk,2013-05-09 15:25:00,
2013-05-09 08:30:00,59.4,29.5,30.18,WNW,296,0.0,0.0,32,0.00,,,0.00,354,WeatherHawk,2013-05-09 15:30:00,
2013-05-09 08:35:00,62.6,29.9,30.18,WSW,241,0.0,-999.0,29,0.00,,,0.00,366,WeatherHawk,2013-05-09 15:35:00,
2013-05-09 08:40:00,58.6,28.0,30.18,WNW,290,3.0,0.0,31,0.00,,,0.00,379,WeatherHawk,2013-05-09 15:40:00,
2013-05-09 08:45:00,60.1,30.2,30.18,NW,326,0.0,0.0,32,0.00,,,0.00,393,WeatherHawk,2013-05-09 15:45:00,
2013-05-09 08:50:00,62.1,30.3,30.17,NW,312,0.0,0.0,30,0.00,,,0.00,406,WeatherHawk,2013-05-09 15:50:00,
2013-05-09 08:55:00,61.5,28.1,30.17,NNW,341,0.0,0.0,28,0.00,,,0.00,417,WeatherHawk,2013-05-09 15:55:00,
2013-05-09 09:00:00,62.9,26.6,30.17,SSW,203,0.0,0.0,25,0.00,,,0.00,429,WeatherHawk,2013-05-09 16:00:00,
2013-05-09 09:05:00,68.7,30.4,30.17,NE,45,0.0,0.0,24,0.00,,,0.00,442,WeatherHawk,2013-05-09 16:05:00,
2013-05-09 09:10:00,60.9,25.8,30.17,WNW,296,3.0,0.0,26,0.00,,,0.00,453,WeatherHawk,2013-05-09 16:10:00,
2013-05-09 09:15:00,60.2,26.1,30.17,NW,324,0.0,0.0,27,0.00,,,0.00,465,WeatherHawk,2013-05-09 16:15:00,
2013-05-09 09:20:00,60.8,26.6,30.17,NW,326,3.0,0.0,27,0.00,,,0.00,477,WeatherHawk,2013-05-09 16:20:00,
2013-05-09 09:25:00,61.4,26.2,30.17,NW,324,3.0,0.0,26,0.00,,,0.00,484,WeatherHawk,2013-05-09 16:25:00,
2013-05-09 09:30:00,63.3,27.8,30.17,NW,305,0.0,0.0,26,0.00,,,0.00,501,WeatherHawk,2013-05-09 16:30:00,
2013-05-09 09:35:00,64.3,26.7,30.17,NNW,339,4.0,-999.0,24,0.00,,,0.00,509,WeatherHawk,2013-05-09 16:35:00,
2013-05-09 09:40:00,63.8,26.4,30.16,NW,314,3.0,0.0,24,0.00,,,0.00,521,WeatherHawk,2013-05-09 16:40:00,
2013-05-09 09:45:00,64.1,26.6,30.17,NNW,332,4.0,0.0,24,0.00,,,0.00,533,WeatherHawk,2013-05-09 16:45:00,
2013-05-09 09:50:00,65.0,26.3,30.17,NNE,15,4.0,0.0,23,0.00,,,0.00,543,WeatherHawk,2013-05-09 16:50:00,
2013-05-09 09:55:00,66.0,26.1,30.17,NE,43,3.0,0.0,22,0.00,,,0.00,553,WeatherHawk,2013-05-09 16:55:00,
2013-05-09 10:00:00,68.1,27.8,30.17,NNW,345,5.0,0.0,22,0.00,,,0.00,562,WeatherHawk,2013-05-09 17:00:00,
2013-05-09 10:05:00,66.2,25.1,30.16,NW,313,5.0,0.0,21,0.00,,,0.00,572,WeatherHawk,2013-05-09 17:05:00,
2013-05-09 10:10:00,67.7,26.4,30.16,North,3,5.0,0.0,21,0.00,,,0.00,581,WeatherHawk,2013-05-09 17:10:00,
2013-05-09 10:15:00,68.2,23.1,30.16,NNW,342,3.0,0.0,18,0.00,,,0.00,592,WeatherHawk,2013-05-09 17:15:00,
2013-05-09 10:20:00,69.5,25.5,30.17,North,351,7.0,0.0,19,0.00,,,0.00,602,WeatherHawk,2013-05-09 17:20:00,
2013-05-09 10:25:00,68.5,22.0,30.16,NNE,20,3.0,0.0,17,0.00,,,0.00,610,WeatherHawk,2013-05-09 17:25:00,
2013-05-09 10:30:00,69.0,22.3,30.16,North,1,5.0,0.0,17,0.00,,,0.00,620,WeatherHawk,2013-05-09 17:30:00,
2013-05-09 10:35:00,69.6,21.4,30.16,NE,49,5.0,-999.0,16,0.00,,,0.00,625,WeatherHawk,2013-05-09 17:35:00,
2013-05-09 10:40:00,70.3,22.0,30.16,NNE,30,3.0,0.0,16,0.00,,,0.00,636,WeatherHawk,2013-05-09 17:40:00,
2013-05-09 10:45:00,72.0,24.8,30.16,North,0,2.0,0.0,17,0.00,,,0.00,645,WeatherHawk,2013-05-09 17:45:00,
2013-05-09 10:50:00,71.8,23.2,30.16,NNE,28,4.0,0.0,16,0.00,,,0.00,642,WeatherHawk,2013-05-09 17:50:00,
2013-05-09 10:55:00,70.2,18.8,30.16,NE,34,3.0,0.0,14,0.00,,,0.00,659,WeatherHawk,2013-05-09 17:55:00,
2013-05-09 11:00:00,69.3,18.0,30.16,NE,47,4.0,0.0,14,0.00,,,0.00,667,WeatherHawk,2013-05-09 18:00:00,
2013-05-09 11:05:00,72.4,20.6,30.16,North,2,1.0,0.0,14,0.00,,,0.00,674,WeatherHawk,2013-05-09 18:05:00,
2013-05-09 11:10:00,71.1,13.9,30.16,NE,34,0.0,0.0,11,0.00,,,0.00,682,WeatherHawk,2013-05-09 18:10:00,
2013-05-09 11:15:00,71.5,9.7,30.16,NNW,348,5.0,-999.0,9,0.00,,,0.00,690,WeatherHawk,2013-05-09 18:15:00,
2013-05-09 11:20:00,71.3,6.9,30.15,West,269,4.0,0.0,8,0.00,,,0.00,694,WeatherHawk,2013-05-09 18:20:00,
2013-05-09 11:25:00,74.6,9.4,30.16,NNW,330,5.0,0.0,8,0.00,,,0.00,699,WeatherHawk,2013-05-09 18:25:00,
2013-05-09 11:30:00,72.2,1.4,30.16,West,263,1.0,-999.0,6,0.00,,,0.00,705,WeatherHawk,2013-05-09 18:30:00,
2013-05-09 11:35:00,73.9,8.9,30.15,West,279,0.0,0.0,8,0.00,,,0.00,711,WeatherHawk,2013-05-09 18:35:00,
2013-05-09 11:40:00,72.8,1.9,30.15,NW,325,6.0,-999.0,6,0.00,,,0.00,714,WeatherHawk,2013-05-09 18:40:00,
2013-05-09 11:45:00,75.8,4.0,30.15,South,173,0.0,0.0,6,0.00,,,0.00,718,WeatherHawk,2013-05-09 18:45:00,
2013-05-09 11:50:00,74.5,6.4,30.15,NW,311,6.0,0.0,7,0.00,,,0.00,724,WeatherHawk,2013-05-09 18:50:00,
2013-05-09 11:55:00,74.8,3.3,30.15,West,275,2.0,0.0,6,0.00,,,0.00,725,WeatherHawk,2013-05-09 18:55:00,
2013-05-09 12:00:00,78.4,12.3,30.15,SW,217,0.0,-999.0,8,0.00,,,0.00,731,WeatherHawk,2013-05-09 19:00:00,
2013-05-09 12:05:00,77.0,8.2,30.16,NNW,327,0.0,0.0,7,0.00,,,0.00,735,WeatherHawk,2013-05-09 19:05:00,
2013-05-09 12:10:00,76.1,4.2,30.14,North,0,3.0,-999.0,6,0.00,,,0.00,734,WeatherHawk,2013-05-09 19:10:00,
2013-05-09 12:15:00,79.3,9.9,30.14,WNW,300,0.0,-999.0,7,0.00,,,0.00,741,WeatherHawk,2013-05-09 19:15:00,
2013-05-09 12:20:00,76.1,10.5,30.14,North,9,4.0,-999.0,8,0.00,,,0.00,743,WeatherHawk,2013-05-09 19:20:00,
2013-05-09 12:25:00,76.7,0.7,30.13,NNW,327,4.0,0.0,5,0.00,,,0.00,745,WeatherHawk,2013-05-09 19:25:00,
2013-05-09 12:30:00,78.5,9.3,30.14,NE,44,0.0,0.0,7,0.00,,,0.00,750,WeatherHawk,2013-05-09 19:30:00,
2013-05-09 12:35:00,76.5,4.5,30.14,WNW,300,3.0,-999.0,6,0.00,,,0.00,750,WeatherHawk,2013-05-09 19:35:00,
2013-05-09 12:40:00,77.9,8.9,30.13,NW,318,7.0,0.0,7,0.00,,,0.00,754,WeatherHawk,2013-05-09 19:40:00,
2013-05-09 12:45:00,77.7,1.4,30.13,NNW,334,6.0,-999.0,5,0.00,,,0.00,755,WeatherHawk,2013-05-09 19:45:00,
2013-05-09 12:50:00,80.0,10.4,30.13,NW,311,2.0,0.0,7,0.00,,,0.00,755,WeatherHawk,2013-05-09 19:50:00,
2013-05-09 12:55:00,78.1,-3.0,30.14,WNW,303,7.0,-999.0,4,0.00,,,0.00,755,WeatherHawk,2013-05-09 19:55:00,
2013-05-09 13:00:00,77.3,-3.6,30.13,NE,38,4.0,0.0,4,0.00,,,0.00,753,WeatherHawk,2013-05-09 20:00:00,
2013-05-09 13:05:00,81.0,3.7,30.14,NNW,335,6.0,0.0,5,0.00,,,0.00,755,WeatherHawk,2013-05-09 20:05:00,
2013-05-09 13:10:00,80.2,-1.6,30.14,NE,39,1.0,0.0,4,0.00,,,0.00,753,WeatherHawk,2013-05-09 20:10:00,
2013-05-09 13:15:00,79.4,-2.1,30.13,NW,318,9.0,-999.0,4,0.00,,,0.00,752,WeatherHawk,2013-05-09 20:15:00,
2013-05-09 13:20:00,78.1,-3.0,30.13,NW,326,6.0,0.0,4,0.00,,,0.00,755,WeatherHawk,2013-05-09 20:20:00,
2013-05-09 13:25:00,78.1,-3.0,30.13,NW,306,5.0,0.0,4,0.00,,,0.00,731,WeatherHawk,2013-05-09 20:25:00,
2013-05-09 13:30:00,82.4,-0.1,30.12,West,268,3.0,-999.0,4,0.00,,,0.00,732,WeatherHawk,2013-05-09 20:30:00,
2013-05-09 13:35:00,79.9,-1.8,30.12,NW,325,1.0,0.0,4,0.00,,,0.00,748,WeatherHawk,2013-05-09 20:35:00,
2013-05-09 13:40:00,80.0,-1.7,30.13,NNW,347,6.0,0.0,4,0.00,,,0.00,748,WeatherHawk,2013-05-09 20:40:00,
2013-05-09 13:45:00,80.9,-1.1,30.12,NW,316,5.0,0.0,4,0.00,,,0.00,743,WeatherHawk,2013-05-09 20:45:00,
2013-05-09 13:51:00,78.7,-2.6,30.12,NNW,331,7.0,0.0,4,0.00,,,0.00,738,WeatherHawk,2013-05-09 20:51:00,
2013-05-09 13:56:00,80.0,-1.7,30.12,NW,314,7.0,0.0,4,0.00,,,0.00,735,WeatherHawk,2013-05-09 20:56:00,
2013-05-09 14:01:00,79.3,-2.2,30.12,North,350,6.0,0.0,4,0.00,,,0.00,731,WeatherHawk,2013-05-09 21:01:00,
2013-05-09 14:06:00,79.2,2.5,30.12,West,281,6.0,0.0,5,0.00,,,0.00,728,WeatherHawk,2013-05-09 21:06:00,
2013-05-09 14:11:00,80.9,3.7,30.11,NNE,23,0.0,0.0,5,0.00,,,0.00,726,WeatherHawk,2013-05-09 21:11:00,
2013-05-09 14:16:00,82.0,-0.3,30.11,NNW,327,10.0,0.0,4,0.00,,,0.00,721,WeatherHawk,2013-05-09 21:16:00,
2013-05-09 14:21:00,81.0,3.7,30.11,NNW,328,4.0,0.0,5,0.00,,,0.00,718,WeatherHawk,2013-05-09 21:21:00,
2013-05-09 14:26:00,83.6,5.6,30.10,NNW,343,5.0,0.0,5,0.00,,,0.00,714,WeatherHawk,2013-05-09 21:26:00,
2013-05-09 14:32:00,82.5,4.8,30.10,North,0,9.0,0.0,5,0.00,,,0.00,706,WeatherHawk,2013-05-09 21:32:00,
2013-05-09 14:37:00,83.6,0.8,30.10,NNW,341,6.0,0.0,4,0.00,,,0.00,701,WeatherHawk,2013-05-09 21:37:00,
2013-05-09 14:42:00,82.9,5.1,30.10,NNE,14,9.0,0.0,5,0.00,,,0.00,696,WeatherHawk,2013-05-09 21:42:00,
2013-05-09 14:48:00,82.7,4.9,30.11,NE,52,6.0,0.0,5,0.00,,,0.00,687,WeatherHawk,2013-05-09 21:48:00,
2013-05-09 14:53:00,82.8,5.0,30.09,NW,304,2.0,0.0,5,0.00,,,0.00,682,WeatherHawk,2013-05-09 21:53:00,
2013-05-09 14:58:00,85.6,7.0,30.09,ENE,62,0.0,0.0,5,0.00,,,0.00,676,WeatherHawk,2013-05-09 21:58:00,
2013-05-09 15:03:00,81.8,4.3,30.10,North,351,5.0,0.0,5,0.00,,,0.00,667,WeatherHawk,2013-05-09 22:03:00,
2013-05-09 15:08:00,83.5,5.5,30.09,NW,319,3.0,0.0,5,0.00,,,0.00,662,WeatherHawk,2013-05-09 22:08:00,
2013-05-09 15:13:00,83.0,5.1,30.08,NW,311,6.0,0.0,5,0.00,,,0.00,653,WeatherHawk,2013-05-09 22:13:00,
2013-05-09 15:19:00,81.9,4.4,30.09,NE,48,7.0,0.0,5,0.00,,,0.00,642,WeatherHawk,2013-05-09 22:19:00,
2013-05-09 15:24:00,83.8,5.7,30.08,NNE,26,8.0,0.0,5,0.00,,,0.00,638,WeatherHawk,2013-05-09 22:24:00,
2013-05-09 15:29:00,84.4,6.1,30.08,North,351,9.0,0.0,5,0.00,,,0.00,633,WeatherHawk,2013-05-09 22:29:00,
2013-05-09 15:34:00,82.8,5.0,30.08,NNE,19,10.0,0.0,5,0.00,,,0.00,621,WeatherHawk,2013-05-09 22:34:00,
2013-05-09 15:39:00,82.4,4.7,30.08,ENE,70,4.0,0.0,5,0.00,,,0.00,615,WeatherHawk,2013-05-09 22:39:00,
2013-05-09 15:44:00,82.4,4.7,30.08,NNE,29,8.0,0.0,5,0.00,,,0.00,601,WeatherHawk,2013-05-09 22:44:00,
2013-05-09 15:50:00,85.4,6.8,30.08,ENE,69,0.0,0.0,5,0.00,,,0.00,596,WeatherHawk,2013-05-09 22:50:00,
2013-05-09 15:55:00,85.7,7.1,30.07,NNW,341,1.0,-999.0,5,0.00,,,0.00,582,WeatherHawk,2013-05-09 22:55:00,
2013-05-09 16:00:00,84.6,6.3,30.07,NW,321,7.0,0.0,5,0.00,,,0.00,577,WeatherHawk,2013-05-09 23:00:00,
2013-05-09 16:05:00,81.9,4.4,30.07,NW,321,8.0,0.0,5,0.00,,,0.00,570,WeatherHawk,2013-05-09 23:05:00,
2013-05-09 16:10:00,84.3,6.1,30.07,North,0,9.0,0.0,5,0.00,,,0.00,558,WeatherHawk,2013-05-09 23:10:00,
2013-05-09 16:15:00,84.6,6.3,30.07,NNW,335,7.0,0.0,5,0.00,,,0.00,550,WeatherHawk,2013-05-09 23:15:00,
2013-05-09 16:20:00,84.6,6.3,30.07,NNE,23,8.0,0.0,5,0.00,,,0.00,538,WeatherHawk,2013-05-09 23:20:00,
2013-05-09 16:25:00,82.8,5.0,30.07,SSE,147,3.0,-999.0,5,0.00,,,0.00,528,WeatherHawk,2013-05-09 23:25:00,
2013-05-09 16:30:00,82.3,4.7,30.06,NE,42,6.0,0.0,5,0.00,,,0.00,518,WeatherHawk,2013-05-09 23:30:00,
2013-05-09 16:35:00,82.4,4.7,30.07,NW,321,9.0,-999.0,5,0.00,,,0.00,508,WeatherHawk,2013-05-09 23:35:00,
2013-05-09 16:40:00,82.6,4.9,30.07,West,279,7.0,0.0,5,0.00,,,0.00,496,WeatherHawk,2013-05-09 23:40:00,
2013-05-09 16:45:00,86.1,7.3,30.07,WNW,303,6.0,0.0,5,0.00,,,0.00,481,WeatherHawk,2013-05-09 23:45:00,
2013-05-09 16:50:00,84.0,5.9,30.07,NW,319,0.0,-999.0,5,0.00,,,0.00,472,WeatherHawk,2013-05-09 23:50:00,
2013-05-09 16:55:00,82.2,4.6,30.07,ENE,60,6.0,0.0,5,0.00,,,0.00,457,WeatherHawk,2013-05-09 23:55:00,
2013-05-09 17:00:00,83.2,5.3,30.07,NE,41,5.0,0.0,5,0.00,,,0.00,446,WeatherHawk,2013-05-10 00:00:00,
2013-05-09 17:05:00,83.0,5.2,30.08,NW,309,3.0,0.0,5,0.00,,,0.00,432,WeatherHawk,2013-05-10 00:05:00,
2013-05-09 17:10:00,84.5,6.2,30.08,ENE,76,7.0,0.0,5,0.00,,,0.00,421,WeatherHawk,2013-05-10 00:10:00,
2013-05-09 17:15:00,85.8,7.1,30.08,NW,317,5.0,0.0,5,0.00,,,0.00,408,WeatherHawk,2013-05-10 00:15:00,
2013-05-09 17:20:00,82.9,5.1,30.07,NE,49,7.0,0.0,5,0.00,,,0.00,398,WeatherHawk,2013-05-10 00:20:00,
2013-05-09 17:25:00,86.4,7.5,30.07,NE,39,1.0,0.0,5,0.00,,,0.00,389,WeatherHawk,2013-05-10 00:25:00,
2013-05-09 17:30:00,85.2,6.7,30.07,ESE,104,3.0,0.0,5,0.00,,,0.00,377,WeatherHawk,2013-05-10 00:30:00,
2013-05-09 17:35:00,83.4,5.4,30.07,NE,40,8.0,0.0,5,0.00,,,0.00,363,WeatherHawk,2013-05-10 00:35:00,
2013-05-09 17:40:00,84.6,6.3,30.08,East,82,2.0,0.0,5,0.00,,,0.00,350,WeatherHawk,2013-05-10 00:40:00,
2013-05-09 17:45:00,83.8,5.7,30.08,NE,46,5.0,0.0,5,0.00,,,0.00,336,WeatherHawk,2013-05-10 00:45:00,
2013-05-09 17:50:00,83.3,5.4,30.08,NNE,27,9.0,-999.0,5,0.00,,,0.00,322,WeatherHawk,2013-05-10 00:50:00,
2013-05-09 17:55:00,83.8,5.7,30.08,NE,50,4.0,0.0,5,0.00,,,0.00,310,WeatherHawk,2013-05-10 00:55:00,
2013-05-09 18:00:00,83.0,5.1,30.08,NW,315,3.0,-999.0,5,0.00,,,0.00,297,WeatherHawk,2013-05-10 01:00:00,
2013-05-09 18:05:00,83.5,5.5,30.07,NE,38,3.0,0.0,5,0.00,,,0.00,291,WeatherHawk,2013-05-10 01:05:00,
2013-05-09 18:10:00,83.9,5.8,30.08,SE,139,1.0,-999.0,5,0.00,,,0.00,279,WeatherHawk,2013-05-10 01:10:00,
2013-05-09 18:15:00,83.3,5.3,30.08,NE,48,2.0,-999.0,5,0.00,,,0.00,269,WeatherHawk,2013-05-10 01:15:00,
2013-05-09 18:20:00,84.2,6.0,30.08,ESE,123,3.0,0.0,5,0.00,,,0.00,264,WeatherHawk,2013-05-10 01:20:00,
2013-05-09 18:25:00,84.5,6.2,30.09,SSE,153,3.0,0.0,5,0.00,,,0.00,273,WeatherHawk,2013-05-10 01:25:00,
2013-05-09 18:30:00,79.0,-2.4,30.09,South,179,5.0,0.0,4,0.00,,,0.00,100,WeatherHawk,2013-05-10 01:30:00,
2013-05-09 18:35:00,77.1,4.9,30.10,SSW,203,10.0,-999.0,6,0.00,,,0.00,70,WeatherHawk,2013-05-10 01:35:00,
2013-05-09 18:40:00,76.1,4.2,30.10,East,94,12.0,0.0,6,0.00,,,0.00,57,WeatherHawk,2013-05-10 01:40:00,
2013-05-09 18:45:00,75.1,6.9,30.10,ESE,111,15.0,0.0,7,0.00,,,0.00,46,WeatherHawk,2013-05-10 01:45:00,
2013-05-09 18:50:00,74.5,3.0,30.12,ESE,118,5.0,0.0,6,0.00,,,0.00,43,WeatherHawk,2013-05-10 01:50:00,
2013-05-09 18:55:00,74.1,9.1,30.12,SE,126,9.0,0.0,8,0.00,,,0.00,36,WeatherHawk,2013-05-10 01:55:00,
2013-05-09 19:00:00,73.7,5.8,30.12,East,96,8.0,0.0,7,0.00,,,0.00,25,WeatherHawk,2013-05-10 02:00:00,
2013-05-09 19:05:00,73.4,11.2,30.13,SSE,158,12.0,0.0,9,0.00,,,0.00,22,WeatherHawk,2013-05-10 02:05:00,
2013-05-09 19:10:00,73.4,13.6,30.12,SSE,147,6.0,0.0,10,0.00,,,0.00,21,WeatherHawk,2013-05-10 02:10:00,
2013-05-09 19:15:00,73.3,13.4,30.12,SE,126,8.0,0.0,10,0.00,,,0.00,18,WeatherHawk,2013-05-10 02:15:00,
2013-05-09 19:20:00,73.3,11.1,30.12,SSW,206,14.0,0.0,9,0.00,,,0.00,18,WeatherHawk,2013-05-10 02:20:00,
2013-05-09 19:25:00,73.2,13.4,30.13,South,169,7.0,0.0,10,0.00,,,0.00,15,WeatherHawk,2013-05-10 02:25:00,
2013-05-09 19:30:00,73.0,15.4,30.13,SE,139,0.0,0.0,11,0.00,,,0.00,15,WeatherHawk,2013-05-10 02:30:00,
2013-05-09 19:35:00,72.8,15.3,30.13,SSE,155,1.0,0.0,11,0.00,,,0.00,17,WeatherHawk,2013-05-10 02:35:00,
2013-05-09 19:40:00,72.5,15.0,30.14,NW,314,5.0,0.0,11,0.00,,,0.00,15,WeatherHawk,2013-05-10 02:40:00,
2013-05-09 19:45:00,72.8,13.1,30.14,NW,308,7.0,0.0,10,0.00,,,0.00,24,WeatherHawk,2013-05-10 02:45:00,
2013-05-09 19:50:00,73.0,13.2,30.14,WSW,256,3.0,0.0,10,0.00,,,0.00,37,WeatherHawk,2013-05-10 02:50:00,
2013-05-09 19:55:00,73.1,13.3,30.14,SW,220,5.0,0.0,10,0.00,,,0.00,32,WeatherHawk,2013-05-10 02:55:00,
2013-05-09 20:00:00,72.3,14.9,30.15,West,272,6.0,0.0,11,0.00,,,0.00,25,WeatherHawk,2013-05-10 03:00:00,
2013-05-09 20:05:00,72.4,16.9,30.14,West,261,2.0,0.0,12,0.00,,,0.00,18,WeatherHawk,2013-05-10 03:05:00,
2013-05-09 20:10:00,71.8,16.4,30.14,WSW,244,4.0,0.0,12,0.00,,,0.00,10,WeatherHawk,2013-05-10 03:10:00,
2013-05-09 20:15:00,72.0,18.4,30.14,West,263,5.0,0.0,13,0.00,,,0.00,7,WeatherHawk,2013-05-10 03:15:00,
2013-05-09 20:20:00,72.2,16.8,30.13,WSW,247,6.0,0.0,12,0.00,,,0.00,5,WeatherHawk,2013-05-10 03:20:00,
2013-05-09 20:25:00,71.8,14.5,30.14,West,261,5.0,-999.0,11,0.00,,,0.00,2,WeatherHawk,2013-05-10 03:25:00,
2013-05-09 20:30:00,71.3,17.9,30.14,West,264,5.0,0.0,13,0.00,,,0.00,1,WeatherHawk,2013-05-10 03:30:00,
2013-05-09 20:35:00,71.4,18.0,30.14,WSW,248,0.0,-999.0,13,0.00,,,0.00,0,WeatherHawk,2013-05-10 03:35:00,
2013-05-09 20:40:00,71.2,17.9,30.14,WSW,240,0.0,0.0,13,0.00,,,0.00,0,WeatherHawk,2013-05-10 03:40:00,
2013-05-09 20:45:00,70.7,17.4,30.14,SW,235,0.0,0.0,13,0.00,,,0.00,1,WeatherHawk,2013-05-10 03:45:00,
2013-05-09 20:50:00,69.4,19.8,30.14,South,180,0.0,0.0,15,0.00,,,0.00,0,WeatherHawk,2013-05-10 03:50:00,
2013-05-09 20:55:00,70.1,20.3,30.15,ESE,109,0.0,0.0,15,0.00,,,0.00,0,WeatherHawk,2013-05-10 03:55:00,
2013-05-09 21:00:00,70.6,25.1,30.15,ESE,104,0.0,0.0,18,0.00,,,0.00,0,WeatherHawk,2013-05-10 04:00:00,
2013-05-09 21:01:00,68.8,20.8,30.16,SE,134,2.0,0.0,16,0.00,,,0.00,0,WeatherHawk,2013-05-10 04:01:00,
2013-05-09 21:02:00,69.4,21.3,30.15,SE,134,2.0,0.0,16,0.00,,,0.00,0,WeatherHawk,2013-05-10 04:02:00,
2013-05-09 21:03:00,69.3,24.0,30.15,SE,134,0.0,0.0,18,0.00,,,0.00,0,WeatherHawk,2013-05-10 04:03:00,
2013-05-09 21:04:00,68.9,22.3,30.16,South,175,1.0,0.0,17,0.00,,,0.00,0,WeatherHawk,2013-05-10 04:04:00,
2013-05-09 21:07:00,68.0,21.6,30.16,South,172,0.0,0.0,17,0.00,,,0.00,0,WeatherHawk,2013-05-10 04:07:00,
2013-05-09 21:12:00,69.4,24.0,30.16,SE,134,0.0,0.0,18,0.00,,,0.00,0,WeatherHawk,2013-05-10 04:12:00,
2013-05-09 21:17:00,70.1,23.3,30.17,SSE,148,1.0,0.0,17,0.00,,,0.00,0,WeatherHawk,2013-05-10 04:17:00,
2013-05-09 21:22:00,67.7,27.5,30.16,NNW,335,4.0,0.0,22,0.00,,,0.00,0,WeatherHawk,2013-05-10 04:22:00,
2013-05-09 21:27:00,66.4,32.3,30.16,NNW,329,0.0,0.0,28,0.00,,,0.00,0,WeatherHawk,2013-05-10 04:27:00,
2013-05-09 21:32:00,67.0,34.5,30.16,ESE,122,0.0,0.0,30,0.00,,,0.00,0,WeatherHawk,2013-05-10 04:32:00,
2013-05-09 21:37:00,67.3,34.8,30.16,ESE,122,0.0,0.0,30,0.00,,,0.00,1,WeatherHawk,2013-05-10 04:37:00,
2013-05-09 21:42:00,68.5,33.2,30.17,East,95,0.0,0.0,27,0.00,,,0.00,1,WeatherHawk,2013-05-10 04:42:00,
2013-05-09 21:47:00,68.0,30.9,30.17,East,95,0.0,0.0,25,0.00,,,0.00,0,WeatherHawk,2013-05-10 04:47:00,
2013-05-09 21:52:00,68.1,28.9,30.17,East,95,0.0,0.0,23,0.00,,,0.00,0,WeatherHawk,2013-05-10 04:52:00,
2013-05-09 21:57:00,67.4,27.2,30.16,SE,133,2.0,0.0,22,0.00,,,0.00,0,WeatherHawk,2013-05-10 04:57:00,
2013-05-09 22:02:00,66.7,25.5,30.17,SSE,151,1.0,0.0,21,0.00,,,0.00,1,WeatherHawk,2013-05-10 05:02:00,
2013-05-09 22:07:00,65.7,26.9,30.17,SSE,164,0.0,0.0,23,0.00,,,0.00,1,WeatherHawk,2013-05-10 05:07:00,
2013-05-09 22:12:00,64.6,28.9,30.17,SSE,164,0.0,0.0,26,0.00,,,0.00,0,WeatherHawk,2013-05-10 05:12:00,
2013-05-09 22:17:00,64.7,30.8,30.17,SSE,164,1.0,0.0,28,0.00,,,0.00,0,WeatherHawk,2013-05-10 05:17:00,
2013-05-09 22:22:00,65.6,29.8,30.16,WSW,249,0.0,0.0,26,0.00,,,0.00,0,WeatherHawk,2013-05-10 05:22:00,
2013-05-09 22:27:00,65.0,32.8,30.17,WSW,243,0.0,0.0,30,0.00,,,0.00,1,WeatherHawk,2013-05-10 05:27:00,
2013-05-09 22:32:00,65.9,36.0,30.17,WSW,243,0.0,0.0,33,0.00,,,0.00,0,WeatherHawk,2013-05-10 05:32:00,
2013-05-09 22:37:00,66.0,33.7,30.17,ESE,111,3.0,0.0,30,0.00,,,0.00,0,WeatherHawk,2013-05-10 05:37:00,
2013-05-09 22:42:00,64.5,31.6,30.16,NNE,22,0.0,0.0,29,0.00,,,0.00,0,WeatherHawk,2013-05-10 05:42:00,
2013-05-09 22:47:00,64.6,32.4,30.17,NW,314,3.0,0.0,30,0.00,,,0.00,0,WeatherHawk,2013-05-10 05:47:00,
2013-05-09 22:52:00,63.8,33.3,30.17,ESE,113,2.0,0.0,32,0.00,,,0.00,0,WeatherHawk,2013-05-10 05:52:00,
2013-05-09 22:57:00,65.5,32.4,30.17,ESE,118,3.0,0.0,29,0.00,,,0.00,0,WeatherHawk,2013-05-10 05:57:00,
2013-05-09 23:02:00,64.7,31.7,30.17,ESE,118,0.0,0.0,29,0.00,,,0.00,0,WeatherHawk,2013-05-10 06:02:00,
2013-05-09 23:07:00,63.9,32.7,30.17,ESE,118,0.0,0.0,31,0.00,,,0.00,0,WeatherHawk,2013-05-10 06:07:00,
2013-05-09 23:12:00,63.6,34.7,30.17,East,85,0.0,0.0,34,0.00,,,0.00,0,WeatherHawk,2013-05-10 06:12:00,
2013-05-09 23:17:00,62.7,33.2,30.17,ESE,116,0.0,0.0,33,0.00,,,0.00,0,WeatherHawk,2013-05-10 06:17:00,
2013-05-09 23:22:00,62.3,32.1,30.18,ESE,116,0.0,0.0,32,0.00,,,0.00,1,WeatherHawk,2013-05-10 06:22:00,
2013-05-09 23:27:00,62.3,35.0,30.17,NNW,346,0.0,0.0,36,0.00,,,0.00,1,WeatherHawk,2013-05-10 06:27:00,
2013-05-09 23:32:00,62.5,36.6,30.18,ESE,108,0.0,0.0,38,0.00,,,0.00,0,WeatherHawk,2013-05-10 06:32:00,
2013-05-09 23:37:00,63.6,35.5,30.18,ESE,109,0.0,0.0,35,0.00,,,0.00,0,WeatherHawk,2013-05-10 06:37:00,
2013-05-09 23:42:00,64.2,33.7,30.18,SE,125,0.0,0.0,32,0.00,,,0.00,0,WeatherHawk,2013-05-10 06:42:00,
2013-05-09 23:47:00,61.5,31.4,30.18,SE,125,0.0,0.0,32,0.00,,,0.00,1,WeatherHawk,2013-05-10 06:47:00,
2013-05-09 23:52:00,62.4,35.1,30.18,NE,38,0.0,0.0,36,0.00,,,0.00,0,WeatherHawk,2013-05-10 06:52:00,
2013-05-09 23:57:00,63.6,34.0,30.18,ESE,118,0.0,0.0,33,0.00,,,0.00,0,WeatherHawk,2013-05-10 06:57:00,